Birmingham, AL

4:36 PM CST on December 08, 2016 (GMT -0600)
Birmingham International

Weather History for KBHM - November, 2012

Change the Weather History Date:

Sunday, November 11, 2012

  Actual Average Record
Temperature  
Mean Temperature 58 °F 56 °F  
Max Temperature 72 °F 67 °F 84 °F (1896)
Min Temperature 44 °F 45 °F 25 °F (1926)
Degree Days  
Heating Degree Days 7 10  
Month to date heating degree days 118 92  
Since 1 July heating degree days 251 219  
Growing Degree Days 8 (Base 50)    
Moisture  
Dew Point 46 °F    
Average Humidity 60    
Maximum Humidity 76    
Minimum Humidity 44    
Precipitation  
Precipitation 0.00 in 0.15 in 3.81 in (1929)
Month to date precipitation 0.61 1.54  
Year to date precipitation 42.02 45.96  
Snow  
Snow 0.00 in 0.00 in - ()
Month to date snowfall 0.0 0.0  
Since 1 July snowfall 0.0 0.0  
Since 1 September snowfall 0.0 0.0  
Snow Depth 0.00 in    
Sea Level Pressure  
Sea Level Pressure 30.26 in    
Wind  
Wind Speed 8 mph (SE)    
Max Wind Speed 20 mph    
Max Gust Speed 28 mph    
Visibility 10 miles    
Events      
T = Trace of Precipitation, MM = Missing Value Source: NWS Daily Summary

Daily Weather History Graph

Daily Weather History Graph

Search for Another Location

Airport or City:

Trip Planner

Search our weather history database for the weather conditions in past years. The results will help you decide how hot, cold, wet, or windy it might be!

Date:

Astronomy

Nov. 11, 2012 Rise Set
Actual Time 6:15 AM CST 4:46 PM CST
Civil Twilight 5:49 AM CST 5:12 PM CST
Nautical Twilight 5:19 AM CST 5:42 PM CST
Astronomical Twilight 4:49 AM CST 6:11 PM CST
Moon 3:34 AM CST (11/11) 3:05 PM CST (11/11)
Length of Visible Light 11h 23m
Length of Day
10h 31m
Waning Crescent, 7% of the Moon is Illuminated
Nov 11
Waning Crescent
Nov 13
New
Nov 20
First Quarter
Nov 28
Full
Dec 6
Last Quarter

Hourly Weather History & Observations

Time (CST) Temp. Windchill Dew Point Humidity Pressure Visibility Wind Dir Wind Speed Gust Speed Precip Events Conditions
12:53 AM 53.1 °F - 37.9 °F 57% 30.27 in 10.0 mi SE 6.9 mph - N/A   Clear
1:53 AM 54.0 °F - 39.0 °F 57% 30.26 in 10.0 mi SE 4.6 mph - N/A   Clear
2:53 AM 53.1 °F - 39.0 °F 59% 30.26 in 10.0 mi SE 4.6 mph - N/A   Clear
3:53 AM 52.0 °F - 39.0 °F 61% 30.27 in 10.0 mi Calm Calm - N/A   Clear
4:53 AM 46.9 °F - 39.0 °F 74% 30.29 in 10.0 mi Calm Calm - N/A   Clear
5:53 AM 46.0 °F 44.8 °F 39.9 °F 79% 30.31 in 10.0 mi ENE 3.5 mph - N/A   Clear
6:53 AM 51.1 °F - 41.0 °F 68% 30.33 in 10.0 mi ESE 5.8 mph - N/A   Clear
7:53 AM 57.0 °F - 42.1 °F 57% 30.34 in 10.0 mi ESE 4.6 mph - N/A   Clear
8:53 AM 61.0 °F - 39.9 °F 46% 30.36 in 10.0 mi SSE 10.4 mph - N/A   Clear
9:53 AM 64.4 °F - 46.4 °F 52% 30.34 in 10.0 mi SSE 11.5 mph 19.6 mph N/A   Clear
10:53 AM 66.0 °F - 48.9 °F 54% 30.32 in 10.0 mi SSE 9.2 mph 24.2 mph N/A   Clear
11:53 AM 69.8 °F - 48.2 °F 46% 30.30 in 10.0 mi South 13.8 mph 21.9 mph N/A   Scattered Clouds
12:53 PM 69.1 °F - 48.9 °F 49% 30.26 in 10.0 mi SSE 12.7 mph 21.9 mph N/A   Clear
1:53 PM 71.1 °F - 48.9 °F 45% 30.23 in 10.0 mi SE 11.5 mph 26.5 mph N/A   Clear
2:53 PM 71.1 °F - 48.9 °F 45% 30.23 in 10.0 mi SE 9.2 mph - N/A   Clear
3:53 PM 70.0 °F - 48.9 °F 47% 30.23 in 10.0 mi SE 5.8 mph - N/A   Mostly Cloudy
4:53 PM 68.0 °F - 48.0 °F 49% 30.23 in 10.0 mi SE 4.6 mph - N/A   Partly Cloudy
5:53 PM 66.9 °F - 48.9 °F 52% 30.25 in 10.0 mi SSE 4.6 mph - N/A   Scattered Clouds
6:53 PM 66.0 °F - 50.0 °F 56% 30.24 in 10.0 mi SSE 6.9 mph - N/A   Clear
7:53 PM 66.0 °F - 50.0 °F 56% 30.23 in 10.0 mi South 8.1 mph - N/A   Clear
8:53 PM 64.4 °F - 50.0 °F 59% 30.24 in 10.0 mi SSE 5.8 mph - N/A   Clear
9:53 PM 64.9 °F - 50.0 °F 58% 30.22 in 10.0 mi SSE 12.7 mph 17.3 mph N/A   Clear
10:53 PM 64.9 °F - 51.1 °F 61% 30.20 in 10.0 mi SSE 9.2 mph 21.9 mph N/A   Clear
11:53 PM 64.9 °F - 51.1 °F 61% 30.14 in 10.0 mi SE 16.1 mph 23.0 mph N/A   Clear